#timestamp,LO_Frequency,Hit,StdDev 
1625256015.7,286046999.6,N
1625256035.5,286046997.2,N
1625256055.4,286046999.6,N
1625256075.2,286046998.7,N
1625256095.0,286046998.6,N
1625256095.9,286046998.6,N
1625256115.8,286047000.7,N
1625256135.6,286046999.8,N
1625256155.5,286047002.2,N
1625256175.3,286047001.6,N
1625256195.1,286047002.2,N
1625256215.9,286047002.2,N
1625256235.7,286047002.2,N
1625256255.5,286046999.7,N
1625256275.4,286047004.0,Y
1625256295.2,286047005.2,P
1625256315.1,286047004.6,N
1625256316.0,286047004.6,N
1625256335.8,286047004.7,N
1625256355.6,286047007.0,Y
1625256375.5,286047004.4,P
1625256395.3,286047004.1,P
1625256415.1,286047003.2,P
1625256435.9,286047005.9,Y
1625256455.7,286046999.9,P
1625256475.6,286047000.1,N
1625256495.4,286047002.4,N
1625256515.2,286047001.6,N
1625256535.1,286047002.5,N
1625256536.0,286047002.5,N
1625256555.8,286047002.2,N
1625256575.7,286047002.4,N
1625256595.5,286047002.8,N
1625256615.3,286047000.1,N
1625256635.2,286047001.0,N
1625256655.0,286046998.1,N
1625256655.9,286046998.1,N
1625256675.7,286046998.1,N
1625256695.6,286047000.6,N
1625256715.4,286047000.9,N
1625256735.3,286047000.3,N
1625256755.1,286047001.1,N
1625256756.0,286047001.1,N
1625256775.8,286047000.3,N
1625256795.7,286046999.9,N
1625256815.5,286047000.2,N
1625256835.3,286047002.8,N
1625256855.2,286047000.4,N
1625256875.0,286047000.6,N
1625256875.9,286047000.6,N
1625256895.8,286047000.4,N
1625256915.6,286047000.5,N
1625256935.4,286047000.9,N
1625256955.3,286046998.1,N
1625256975.1,286046999.4,N
1625256995.9,286046999.4,N
1625257015.7,286046999.1,N
1625257035.5,286046999.5,N
1625257055.4,286046998.4,N
1625257075.2,286046997.4,N
1625257095.0,286046997.5,N
1625257095.9,286046997.5,N
1625257115.8,286046997.1,N
1625257135.6,286046997.4,N
1625257155.5,286046993.4,Y
1625257175.3,286046993.8,P
1625257195.1,286046993.8,N
1625257215.9,286046996.4,N
1625257235.7,286046993.5,N
1625257255.5,286046994.6,N
1625257275.4,286046994.2,N
1625257325.3,286046994.1,E
1625257335.2,286046997.8,N
1625257355.0,286046998.3,P
1625257355.9,286046998.3,P
1625257375.8,286046998.4,Y
1625257395.6,286047002.7,P
1625257415.4,286047000.0,N
1625257435.3,286047002.8,N
1625257455.1,286047002.3,N
1625257475.8,286047000.3,N
1625257495.7,286047000.2,N
1625257515.5,286047000.7,N
1625257535.4,286046998.7,N
1625257555.2,286046998.6,N
1625257575.0,286046998.6,N
1625257575.9,286046998.6,N
1625257595.8,286047000.6,N
1625257615.6,286047002.8,N
1625257635.5,286047002.3,N
1625257655.3,286047002.7,N
1625257675.1,286047000.6,N
1625257695.9,286047000.2,N
1625257715.7,286047000.9,N
1625257735.5,286047001.1,N
1625257755.4,286046999.2,N
1625257775.2,286046999.6,N
1625257795.0,286046997.1,N
1625257795.9,286046997.1,N
1625257815.8,286046996.7,N
1625257835.6,286046997.0,N
1625257855.5,286046997.1,N
1625257875.3,286046997.8,N
1625257895.1,286046997.3,N
1625257915.9,286046994.9,N
1625257935.7,286046994.9,N
1625257955.5,286046995.3,N
1625257975.4,286046997.9,N
1625257995.2,286046997.7,N
1625258015.1,286046997.5,N
1625258016.0,286046997.5,N
1625258035.8,286046994.9,N
1625258055.6,286046995.2,N
1625258075.5,286046996.0,N
1625258095.3,286046995.1,N
1625258115.1,286046995.1,N
1625258135.9,286046997.6,N
1625258155.7,286046994.9,N
1625258175.6,286046996.7,N
1625258195.4,286046996.8,N
1625258215.2,286046999.5,N
1625258235.1,286046999.6,N
1625258236.0,286046999.6,N
1625258255.8,286046999.2,N
1625258275.7,286046998.5,N
1625258295.5,286046998.7,N
1625258315.3,286046998.1,N
1625258335.2,286046999.3,N
1625258355.9,286046998.5,N
1625258375.7,286047001.2,N
1625258395.6,286046996.9,N
1625258415.4,286046999.0,N
1625258435.2,286046998.1,N
1625258455.1,286047001.2,N
1625258456.0,286047001.2,N
1625258475.8,286047001.1,N
1625258495.7,286047001.2,N
1625258545.5,286046996.6,E
1625258555.5,286046998.1,N
1625258575.3,286047002.7,P
1625258595.1,286047000.1,N
1625258615.9,286047002.7,N
1625258635.7,286047002.1,N
1625258655.5,286047004.0,N
1625258675.4,286047004.4,N
1625258695.2,286047003.1,N
1625258715.0,286047004.4,N
1625258716.0,286047004.4,N
1625258735.8,286047002.1,N
1625258755.6,286047002.4,N
1625258775.5,286047001.9,N
1625258795.3,286047002.7,N
1625258815.1,286047002.7,N
1625258835.9,286047002.2,N
1625258855.7,286047001.7,N
1625258875.5,286047003.8,N
1625258895.4,286047001.6,N
1625258915.2,286047004.3,N
1625258935.1,286047003.1,N
1625258936.0,286047003.1,N
1625258955.8,286047006.0,Y
1625258975.6,286047002.0,P
1625258995.5,286047002.4,P
1625259015.3,286047002.2,P
1625259035.2,286047002.8,Y
1625259055.9,286046998.6,P
1625259075.7,286046998.7,N
1625259095.6,286046998.8,N
1625259115.4,286046999.5,N
1625259135.2,286046999.5,N
1625259155.1,286046999.2,N
1625259156.0,286046999.2,N
1625259175.8,286046998.9,N
1625259195.7,286046999.0,N
1625259215.5,286046998.9,N
1625259235.3,286047000.9,N
1625259255.2,286047000.6,N
1625259275.9,286046998.9,N
1625259295.7,286046996.5,Y
1625259315.6,286046999.4,P
1625259335.4,286046999.6,P
1625259355.3,286046999.4,P
1625259375.1,286047001.2,Y
1625259376.0,286047001.2,P
1625259395.8,286047001.1,N
1625259415.7,286047000.5,N
1625259435.5,286047000.8,N
1625259455.3,286047000.5,N
1625259475.2,286047001.0,N
1625259495.0,286047000.5,N
1625259495.9,286047000.5,N
1625259515.8,286047000.9,N
1625259535.6,286047000.5,N
1625259555.4,286047002.6,Y
1625259575.3,286047001.9,P
1625259595.1,286047004.0,P
